sat.trackr.live / text

‹ back to catalog

STARLINK-3555

NORAD 51863 · 2022-022M

PAYLOAD ACTIVE UNKNOWN

§ Identity

Operator
Country
US
Launch date
2022-03-03
Launch site
AFETR
Launch vehicle
Mass (kg)
RCS (m²)

Purposes: comms

External: N2YO · Heavens-Above · Gunter

§ Orbital elements

Epoch: 2026-05-24T22:46:10.126848Z

Period
95.44 min
Inclination
53.2155°
Eccentricity
0.0001322
Mean motion
15.08833523 rev/d
Perigee alt
538.8 km
Apogee alt
540.7 km
Semi-major
6,917.9 km
B*
5.1399e-6
RAAN
26.7800°
Arg perigee
93.2184°
Mean anomaly
266.8959°
Rev number
23,462

§ Raw data

STARLINK-35551 51863U 22022M   26144.94872832 -.00000206  00000+0  51399-5 0  99912 51863  53.2155  26.7800 0001322  93.2184 266.8959 15.08833523234624

JSON: /api/v1/satellites/51863 · /tle

For live sub-satellite position, see the globe view (requires WebGL).

§ Visibility from observer

Set your observer location to see the next 7 days of passes ≥ 10°. The values pass through the URL so the page stays shareable.

No JS? Fill the form by hand. The geolocation button needs JavaScript.